Regional Weather Roundup
Issued by NWS

Home | Current Version | Previous Version | Text Only | Print | Product List | Glossary Off
Versions: 1 2 3 4 5 6 7 8 9 10 11 12 13 14 15 16 17 18 19 20 21 22 23 24 25 26 27 28 29 30 31 32 33 34 35 36 37 38 39 40 41 42 43 44 45 46 47 48 49 50

978
ASUS43 KDTX 031710
RWRMI
MICHIGAN HOURLY REGIONAL WEATHER ROUNDUP
NATIONAL WEATHER SERVICE DETROIT/PONTIAC MI
ISSUED BY NATIONAL WEATHER SERVICE GRAND RAPIDS MI
1200 PM EST SAT DEC 03 2016

NOTE: "FAIR" INDICATES FEW OR NO CLOUDS BELOW 12,000 FEET WITH NO
SIGNIFICANT WEATHER AND/OR OBSTRUCTION TO VISIBILITY.

MIZ047>049-052>055-059>063-066>070-074>076-081>083-031800-
SOUTHEAST LOWER MICHIGAN

CITY           SKY/WX    TMP DP  RH WIND       PRES   REMARKS
ADRIAN         CLOUDY    36  30  79 NW6       30.30F WCI  31
ALMA           CLOUDY    37  31  76 W8G16     30.27F WCI  31
ANN ARBOR      CLOUDY    37  30  75 SW8       30.28F WCI  31
BAD AXE        CLOUDY    37  33  87 W8        30.25F WCI  31
DETROIT CITY   CLOUDY    38  31  76 W6        30.28F WCI  33
DETROIT        CLOUDY    38  30  73 W9        30.29F WCI  31
FLINT          CLOUDY    37  30  75 W10       30.28F WCI  30
GROSSE ILE     CLOUDY    38  30  71 W9        30.28F WCI  32
HILLSDALE      CLOUDY    34  27  75 W7        30.26F WCI  28
HOWELL         CLOUDY    36  29  75 W8        30.26F WCI  30

CITY           SKY/WX    TMP DP  RH WIND       PRES   REMARKS
JACKSON        CLOUDY    36  28  73 NW6       30.27F WCI  31
LANSING        CLOUDY    36  28  73 W7        30.28F WCI  30
MASON          CLOUDY    35  31  86 W5        30.28F WCI  31
MONROE         CLOUDY    37  31  78 NW8       30.29F WCI  31
MT. CLEMENS    CLOUDY    40  31  70 W9        30.24F WCI  33
PONTIAC        CLOUDY    36  30  79 W10       30.25F WCI  28
PORT HOPE        N/A     41  33  73 NW8       30.22F
PORT HURON     CLOUDY    37  32  81 W7        30.26F WCI  32
TRI CITIES     CLOUDY    38  32  79 W12       30.27F WCI  30
YPSILANTI      CLOUDY    39  30  70 W10       30.29F WCI  32
$$
MIZ043>046-050>051-056>058-064>065-071>073-077>080-031800-
SOUTHWEST LOWER MICHIGAN

CITY           SKY/WX    TMP DP  RH WIND       PRES   REMARKS
BATTLE CREEK   CLOUDY    36  30  79 W5        30.28F WCI  32
BENTON HARBOR  CLOUDY    37  25  61 W7        30.31F WCI  32
BIG RAPIDS     CLOUDY    37  30  75 W5        30.26S WCI  33
COLDWATER      CLOUDY    37  26  64 W5        30.28F WCI  33
HOLLAND        CLOUDY    37  27  67 NW5       30.29F WCI  33
GRAND RAPIDS   FLURRIES  36  29  75 N3        30.29F
KALAMAZOO      CLOUDY    36  27  69 SW6       30.29F WCI  31
MARSHALL       CLOUDY    36  30  78 W5        30.28F WCI  32
MOUNT PLEASANT CLOUDY    37  30  74 W9        30.26F WCI  31
MUSKEGON       FLURRIES  36  28  73 NW8       30.30F WCI  30
STURGIS        CLOUDY    36  26  67 CALM      30.29F
$$
MIZ016>042-031800-
NORTHERN LOWER MICHIGAN

CITY           SKY/WX    TMP DP  RH WIND       PRES   REMARKS
ALPENA         CLOUDY    39  31  72 NW7       30.23F WCI  34
BEAVER ISLAND  CLOUDY    38  32  78 NW5       30.25S WCI  34
BELLAIRE       LGT SNOW  35  34  96 SW3       30.25F
CADILLAC       CLOUDY    34  33  93 W8        30.22F WCI  28
CHARLEVOIX     CLOUDY    39  32  76 N6        30.26F WCI  35
GAYLORD        CLOUDY    37  31  78 CALM      30.21F
HOUGHTON LAKE  CLOUDY    36  32  85 SW8       30.23F WCI  30
MANISTEE       CLOUDY    36  31  82 W12       30.27F WCI  28
OSCODA         CLOUDY    41  32  69 W5        30.23F
PELLSTON       LGT RAIN  35  32  88 W6        30.24F WCI  30
TRAVERSE CITY  CLOUDY    40  34  79 SW5       30.24F
LUDINGTON      FLURRIES  35  31  84 CALM      30.28F
$$
MIZ007>008-015-031800-
EASTERN UPPER MICHIGAN

CITY           SKY/WX    TMP DP  RH WIND       PRES   REMARKS
KINROSS        CLOUDY    35  33  92 W9        30.21F WCI  28
MACKINAC ISLAN CLOUDY    36  31  82 NW5       30.22F WCI  32
NEWBERRY       CLOUDY    35  33  92 NW8       30.22F WCI  29
S. S. MARIE    LGT SNOW  35  33  92 N6        30.20F FOG     WCI  30
$$
MIZ004>006-011>014-085-031800-
CENTRAL UPPER MICHIGAN

CITY           SKY/WX    TMP DP  RH WIND       PRES   REMARKS
MANISTIQUE     CLOUDY    36  32  85 W3        30.24F
ESCANABA       CLOUDY    36  28  73 NW6       30.26F WCI  31
MENOMINEE      CLOUDY    34  27  75 W6        30.28F WCI  29
SAWYER-GWINN   CLOUDY    32  28  86 CALM      30.23
$$
MIZ001>003-009>011-084-031800-
WESTERN UPPER MICHIGAN

CITY           SKY/WX    TMP DP  RH WIND       PRES   REMARKS
IRON MOUNTAIN  CLOUDY    33  25  72 NW5       30.23F WCI  29
HOUGHTON       CLOUDY    32  28  85 SW3       30.22F
COPPER HARBOR    N/A     35  31  85 NW5       30.25F WCI  31
IRONWOOD       CLOUDY    30  27  88 SW6       30.25S WCI  24
$$

ABBREVIATIONS USED IN REMARKS
   TC - TEMPERATURE IN CELSIUS
  WCI - WIND CHILL INDEX
   HX - HEAT INDEX
  VSB - VISIBILITY





USA.gov is the U.S. government's official web portal to all federal, state and local government web resources and services.